Hourly Data Report for April 27, 2018

KUGAARUK CLIMATE
NUNAVUT
Current Station Operator: ECCC - MSC

68°32'15.060" N
89°47'47.020" W
15.80 m
2303094
71407
NBB

Download Data

Hourly Data (April 2018)
Hourly Data Report for April 27, 2018
TIME
LST
Temp Definition
°C
Dew Point Definition
°C
Rel Hum Definition
%
Precip. Amount Definition
mm

Wind Dir Definition
10's deg

Wind Spd Definition
km/h
Visibility Definition
km
Stn Press Definition
kPa
Hmdx Definition


Wind Chill Definition


Weather Definition


00:00 -20.0 -22.4 81 0.0 27 12   101.10   -28 LegendNANA
01:00 -20.8 -23.5 79 0.0 24 14   101.09   -30 LegendNANA
02:00 -21.1 -23.7 79 0.0 26 16   101.06   -31 LegendNANA
03:00 -20.9 -23.6 79 0.0 24 16   101.03   -31 LegendNANA
04:00 -20.2 -23.1 78 0.0 25 11   101.00   -28 LegendNANA
05:00 -20.1 -23.2 76 0.0 24 19   100.98   -30 LegendNANA
06:00 -20.1 -23.6 73 0.0 25 18   100.95   -30 LegendNANA
07:00 -19.1 -23.4 69 0.0 26 15   100.91   -28 LegendNANA
08:00 -18.6 -23.7 64 0.0 28 14   100.86   -27 LegendNANA
09:00 -18.2 -23.5 63 0.0 28 14   100.84   -27 LegendNANA
10:00 -17.9 -23.6 61 0.0 28 11   100.81   -25 LegendNANA
11:00 -17.0 -22.8 61 0.0 28 11   100.77   -24 LegendNANA
12:00 -16.4 -22.3 60 0.0 26 11   100.74   -23 LegendNANA
13:00 -15.4 -20.9 62 0.0 28 13   100.69   -23 LegendNANA
14:00 -15.6 -20.8 65 0.0 27 22   100.67   -25 LegendNANA
15:00 -15.7 -20.3 67 0.0 28 18   100.66   -25 LegendNANA
16:00 -16.0 -21.0 65 0.0 29 16   100.63   -24 LegendNANA
17:00 -17.0 -21.3 69 0.0 28 14   100.59   -25 LegendNANA
18:00 -17.3 -21.2 72 0.0 28 14   100.56   -25 LegendNANA
19:00 -18.7 -21.8 76 0.0 29 16   100.50   -28 LegendNANA
20:00 -20.7 -23.7 77 0.0 25 11   100.49   -28 LegendNANA
21:00 -20.7 -23.4 79 0.0 27 8   100.45   -27 LegendNANA
22:00 -20.2 -22.8 80 0.0 27 13   100.38   -29 LegendNANA
23:00 -20.4 -22.9 80 0.0 26 11   100.35   -28 LegendNANA

Notes on Data Quality.

Legend

  • E = Estimated
  • M = Missing
  • NA = Not Available*
  • [empty] = Indicates an unobserved value
Date modified: